• In Hungary
  • List of Countries
  • For 7 days
  • Water Temperature
  • Satellite Maps
  • Weather Map
  • News
  • Weather Widgets
  • user-avatar
    Login

    Hourly Weather Dankowice

    Today, 23 September, Sunday

    Time Temperature Precipitation Wind Pressure Humidity
    00:00 +12°C° 0.1 mm 3 mps 742 mmHg 67%
    01:00 +12°C° 0.1 mm 3 mps 742 mmHg 69%
    02:00 +12°C° 0 mm 3 mps 742 mmHg 71%
    03:00 +11°C° 0 mm 3 mps 741 mmHg 73%
    04:00 +11°C° 0 mm 3 mps 741 mmHg 75%
    05:00 +11°C° 0 mm 3 mps 741 mmHg 73%
    06:00 +12°C° 0 mm 3 mps 741 mmHg 72%
    07:00 +12°C° 0 mm 3 mps 741 mmHg 71%
    08:00 +13°C° 0 mm 4 mps 741 mmHg 66%
    09:00 +14°C° 0 mm 4 mps 741 mmHg 61%
    10:00 +15°C° 0 mm 5 mps 740 mmHg 57%
    11:00 +15°C° 0 mm 5 mps 740 mmHg 59%
    12:00 +15°C° 0 mm 5 mps 740 mmHg 62%
    13:00 +15°C° 0 mm 5 mps 739 mmHg 65%
    14:00 +15°C° 0.2 mm 5 mps 738 mmHg 69%
    15:00 +14°C° 0.2 mm 4 mps 738 mmHg 74%
    16:00 +13°C° 0.2 mm 4 mps 737 mmHg 78%
    17:00 +13°C° 0.1 mm 5 mps 736 mmHg 77%
    18:00 +14°C° 0.1 mm 5 mps 735 mmHg 76%
    19:00 +14°C° 0.1 mm 5 mps 734 mmHg 75%
    20:00 +14°C° 0.4 mm 6 mps 733 mmHg 76%
    21:00 +15°C° 0.4 mm 7 mps 732 mmHg 76%
    22:00 +16°C° 0.4 mm 8 mps 731 mmHg 76%
    23:00 +16°C° 2.9 mm 8 mps 730 mmHg 81%

    Tomorrow, 24 September, Monday

    Time Temperature Precipitation Wind Pressure Humidity
    00:00 +16°C° 2.9 mm 7 mps 730 mmHg 85%
    01:00 +16°C° 2.9 mm 7 mps 729 mmHg 89%
    02:00 +13°C° 2.3 mm 8 mps 731 mmHg 88%
    03:00 +12°C° 2.3 mm 8 mps 732 mmHg 88%
    04:00 +10°C° 2.3 mm 9 mps 734 mmHg 87%
    05:00 +9°C° 0.3 mm 8 mps 735 mmHg 86%
    06:00 +9°C° 0.3 mm 8 mps 737 mmHg 85%
    07:00 +8°C° 0.3 mm 7 mps 738 mmHg 84%
    08:00 +9°C° 0.1 mm 7 mps 739 mmHg 80%
    09:00 +9°C° 0.1 mm 8 mps 740 mmHg 76%
    10:00 +9°C° 0.1 mm 8 mps 741 mmHg 72%
    11:00 +10°C° 0.2 mm 8 mps 741 mmHg 68%
    12:00 +10°C° 0.2 mm 8 mps 742 mmHg 63%
    13:00 +11°C° 0.2 mm 8 mps 743 mmHg 58%
    14:00 +10°C° 0.2 mm 8 mps 743 mmHg 59%
    15:00 +10°C° 0.2 mm 8 mps 743 mmHg 60%
    16:00 +9°C° 0.2 mm 7 mps 743 mmHg 60%
    17:00 +8°C° 0.1 mm 6 mps 744 mmHg 63%
    18:00 +8°C° 0.1 mm 6 mps 744 mmHg 65%
    19:00 +7°C° 0.1 mm 5 mps 744 mmHg 68%
    20:00 +6°C° 0 mm 5 mps 745 mmHg 69%
    21:00 +6°C° 0 mm 5 mps 746 mmHg 69%
    22:00 +6°C° 0 mm 5 mps 746 mmHg 70%
    23:00 +6°C° 0.1 mm 4 mps 747 mmHg 72%

    Day after tomorrow, 25 September, Tuesday

    Time Temperature Precipitation Wind Pressure Humidity
    00:00 +5°C° 0.1 mm 4 mps 747 mmHg 73%
    01:00 +5°C° 0.1 mm 4 mps 748 mmHg 74%
    02:00 +5°C° 0.1 mm 4 mps 748 mmHg 76%
    03:00 +5°C° 0.1 mm 3 mps 748 mmHg 77%
    04:00 +4°C° 0.1 mm 3 mps 749 mmHg 79%
    05:00 +5°C° 0 mm 3 mps 749 mmHg 79%
    06:00 +5°C° 0 mm 3 mps 750 mmHg 79%
    07:00 +5°C° 0 mm 3 mps 751 mmHg 79%
    08:00 +6°C° 0 mm 4 mps 751 mmHg 74%
    09:00 +7°C° 0 mm 4 mps 751 mmHg 69%
    10:00 +8°C° 0 mm 4 mps 752 mmHg 64%
    11:00 +10°C° 0.1 mm 4 mps 752 mmHg 62%
    12:00 +10°C° 0.1 mm 4 mps 752 mmHg 59%
    13:00 +11°C° 0.1 mm 4 mps 752 mmHg 57%
    14:00 +11°C° 0.2 mm 4 mps 752 mmHg 57%
    15:00 +11°C° 0.2 mm 4 mps 752 mmHg 58%
    16:00 +11°C° 0.2 mm 4 mps 752 mmHg 58%
    17:00 +9°C° 0 mm 3 mps 753 mmHg 62%
    18:00 +8°C° 0 mm 2 mps 753 mmHg 66%
    19:00 +7°C° 0 mm 2 mps 754 mmHg 70%
    20:00 +7°C° 0 mm 1 mps 754 mmHg 71%
    21:00 +7°C° 0 mm 1 mps 754 mmHg 72%
    22:00 +6°C° 0 mm 1 mps 755 mmHg 73%
    23:00 +6°C° 0 mm 1 mps 755 mmHg 74%

    26 September, Wednesday

    Time Temperature Precipitation Wind Pressure Humidity
    00:00 +6°C° 0 mm 1 mps 755 mmHg 75%
    01:00 +5°C° 0 mm 1 mps 755 mmHg 76%
    02:00 +5°C° 0 mm 1 mps 755 mmHg 77%
    03:00 +5°C° 0 mm 1 mps 755 mmHg 77%
    04:00 +4°C° 0 mm 2 mps 755 mmHg 78%
    05:00 +4°C° 0 mm 2 mps 755 mmHg 75%
    06:00 +5°C° 0 mm 2 mps 755 mmHg 73%
    07:00 +5°C° 0 mm 2 mps 755 mmHg 70%
    08:00 +8°C° 0 mm 2 mps 755 mmHg 62%
    09:00 +10°C° 0 mm 3 mps 755 mmHg 53%
    10:00 +12°C° 0 mm 3 mps 754 mmHg 44%
    11:00 +13°C° 0 mm 4 mps 754 mmHg 43%
    12:00 +13°C° 0 mm 4 mps 753 mmHg 42%
    13:00 +14°C° 0 mm 4 mps 753 mmHg 42%
    14:00 +14°C° 0 mm 4 mps 752 mmHg 44%
    15:00 +14°C° 0 mm 4 mps 751 mmHg 46%
    16:00 +14°C° 0 mm 4 mps 751 mmHg 48%
    17:00 +12°C° 0 mm 4 mps 751 mmHg 53%
    18:00 +11°C° 0 mm 4 mps 751 mmHg 57%
    19:00 +9°C° 0 mm 3 mps 750 mmHg 61%
    20:00 +9°C° 0 mm 3 mps 750 mmHg 60%
    21:00 +9°C° 0 mm 3 mps 750 mmHg 59%
    22:00 +9°C° 0 mm 3 mps 750 mmHg 58%
    23:00 +9°C° 0 mm 3 mps 750 mmHg 58%

    27 September, Thursday

    Time Temperature Precipitation Wind Pressure Humidity
    00:00 +8°C° 0 mm 3 mps 750 mmHg 58%
    01:00 +8°C° 0 mm 3 mps 749 mmHg 58%
    02:00 +8°C° 0 mm 3 mps 749 mmHg 59%
    03:00 +8°C° 0 mm 3 mps 749 mmHg 59%
    04:00 +7°C° 0 mm 3 mps 748 mmHg 60%
    05:00 +8°C° 0 mm 3 mps 748 mmHg 59%
    06:00 +8°C° 0 mm 3 mps 748 mmHg 58%
    07:00 +9°C° 0 mm 3 mps 748 mmHg 58%
    08:00 +11°C° 0 mm 3 mps 748 mmHg 53%
    09:00 +13°C° 0 mm 4 mps 747 mmHg 48%
    10:00 +17°C° 0 mm 4 mps 747 mmHg 44%
    11:00 +18°C° 0 mm 4 mps 747 mmHg 42%
    12:00 +19°C° 0 mm 4 mps 746 mmHg 40%
    13:00 +20°C° 0 mm 4 mps 746 mmHg 39%
    14:00 +20°C° 0 mm 4 mps 746 mmHg 42%
    15:00 +19°C° 0 mm 3 mps 745 mmHg 45%
    16:00 +19°C° 0 mm 3 mps 745 mmHg 48%
    17:00 +17°C° 0 mm 3 mps 745 mmHg 53%
    18:00 +14°C° 0 mm 3 mps 745 mmHg 58%
    19:00 +14°C° 0 mm 2 mps 745 mmHg 63%
    20:00 +13°C° 0 mm 2 mps 744 mmHg 64%
    21:00 +13°C° 0 mm 2 mps 744 mmHg 64%
    22:00 +12°C° 0 mm 2 mps 744 mmHg 65%
    23:00 +12°C° 0 mm 2 mps 744 mmHg 65%

    28 September, Friday

    Time Temperature Precipitation Wind Pressure Humidity
    00:00 +12°C° 0 mm 2 mps 743 mmHg 66%
    01:00 +12°C° 0 mm 2 mps 743 mmHg 66%
    02:00 +10°C° 0 mm 2 mps 743 mmHg 67%
    03:00 +10°C° 0 mm 2 mps 742 mmHg 67%
    04:00 +10°C° 0 mm 2 mps 742 mmHg 68%
    05:00 +12°C° 0 mm 2 mps 742 mmHg 67%
    06:00 +12°C° 0 mm 2 mps 742 mmHg 67%
    07:00 +13°C° 0 mm 2 mps 742 mmHg 66%
    08:00 +14°C° 0 mm 2 mps 743 mmHg 65%
    09:00 +16°C° 0 mm 2 mps 743 mmHg 64%
    10:00 +17°C° 0 mm 2 mps 743 mmHg 63%
    11:00 +17°C° 0 mm 2 mps 743 mmHg 67%
    12:00 +16°C° 0 mm 2 mps 743 mmHg 71%
    13:00 +16°C° 0 mm 2 mps 743 mmHg 76%
    14:00 +15°C° 0.1 mm 2 mps 742 mmHg 78%
    15:00 +15°C° 0.1 mm 2 mps 742 mmHg 81%
    16:00 +14°C° 0.1 mm 2 mps 742 mmHg 83%
    17:00 +14°C° 0.1 mm 1 mps 742 mmHg 84%
    18:00 +13°C° 0.1 mm 1 mps 742 mmHg 85%
    19:00 +13°C° 0.1 mm 1 mps 743 mmHg 86%
    20:00 +12°C° 0 mm 1 mps 743 mmHg 85%
    21:00 +12°C° 0 mm 1 mps 742 mmHg 85%
    22:00 +12°C° 0 mm 1 mps 742 mmHg 85%
    23:00 +12°C° 0.2 mm 1 mps 742 mmHg 85%
    Show more